Evansville, IN

11:21 PM CDT on March 28, 2017 (GMT -0500)
Evansville Regional

Weather History for KEVV - May, 2012

Change the Weather History Date:

Sunday, May 13, 2012

  Actual Average Record
Temperature  
Mean Temperature 68 °F 65 °F  
Max Temperature 76 °F 76 °F 92 °F (1962)
Min Temperature 59 °F 54 °F 36 °F (1960)
Degree Days  
Heating Degree Days 0 3  
Month to date heating degree days 10 52  
Since 1 July heating degree days 3473 4507  
Cooling Degree Days 3 3  
Month to date cooling degree days 87 26  
Year to date cooling degree days 183 53  
Growing Degree Days 18 (Base 50)    
Moisture  
Dew Point 57 °F    
Average Humidity 75    
Maximum Humidity 97    
Minimum Humidity 53    
Precipitation  
Precipitation 0.01 in 0.19 in 2.26 in (1995)
Month to date precipitation 1.97 2.28  
Year to date precipitation 11.06 17.16  
Snow  
Snow 0.00 in 0.00 in 0.00 in (2002)
Month to date snowfall 0.0 0.0  
Since 1 July snowfall 0.5 11.8  
Snow Depth 0.00 in    
Sea Level Pressure  
Sea Level Pressure 30.09 in    
Wind  
Wind Speed 8 mph (NE)    
Max Wind Speed 20 mph    
Max Gust Speed 26 mph    
Visibility 8 miles    
Events      
T = Trace of Precipitation, MM = Missing Value Source: NWS Daily Summary

Daily Weather History Graph

Daily Weather History Graph

Search for Another Location

Airport or City:

Trip Planner

Search our weather history database for the weather conditions in past years. The results will help you decide how hot, cold, wet, or windy it might be!

Date:

Astronomy

May. 13, 2012 Rise Set
Actual Time 5:40 AM CDT 7:52 PM CDT
Civil Twilight 5:11 AM CDT 8:21 PM CDT
Nautical Twilight 4:35 AM CDT 8:58 PM CDT
Astronomical Twilight 3:56 AM CDT 9:37 PM CDT
Moon 1:39 AM CDT (5/13) 1:19 PM CDT (5/13)
Length of Visible Light 15h 10m
Length of Day
14h 11m
Last Quarter, 42% of the Moon is Illuminated
May 13
Last Quarter
May 20
New
May 28
First Quarter
Jun 4
Full
Jun 11
Last Quarter

Hourly Weather History & Observations

Time (CDT) Temp. Dew Point Humidity Pressure Visibility Wind Dir Wind Speed Gust Speed Precip Events Conditions
12:54 AM 62.1 °F 57.9 °F 86% 30.16 in 7.0 mi Calm Calm - 0.00 in   Overcast
1:54 AM 61.0 °F 59.0 °F 93% 30.14 in 5.0 mi NE 3.5 mph - N/A   Overcast
2:07 AM 60.8 °F 59.0 °F 94% 30.14 in 5.0 mi Calm Calm - N/A   Overcast
2:32 AM 62.6 °F 59.0 °F 88% 30.14 in 6.0 mi Calm Calm - N/A   Overcast
2:54 AM 61.0 °F 57.9 °F 90% 30.13 in 6.0 mi NE 4.6 mph - N/A   Overcast
3:54 AM 61.0 °F 57.9 °F 90% 30.13 in 7.0 mi NE 5.8 mph - N/A   Overcast
4:46 AM 60.8 °F 57.2 °F 88% 30.13 in 8.0 mi NNE 6.9 mph - N/A   Overcast
4:54 AM 61.0 °F 57.0 °F 87% 30.12 in 9.0 mi NE 6.9 mph - N/A   Overcast
5:38 AM 60.8 °F 57.2 °F 88% 30.13 in 9.0 mi NE 5.8 mph - N/A   Overcast
5:54 AM 61.0 °F 57.0 °F 87% 30.12 in 9.0 mi NE 5.8 mph - N/A   Overcast
6:54 AM 60.8 °F 57.2 °F 88% 30.13 in 6.0 mi NNE 5.8 mph - N/A   Overcast
7:54 AM 62.1 °F 57.9 °F 86% 30.13 in 6.0 mi NNE 8.1 mph - 0.01 in   Overcast
8:54 AM 63.0 °F 59.0 °F 87% 30.13 in 7.0 mi NNE 8.1 mph - N/A   Overcast
9:54 AM 66.2 °F 57.2 °F 73% 30.12 in 6.0 mi NE 10.4 mph - N/A   Overcast
10:54 AM 68.0 °F 55.9 °F 65% 30.10 in 10.0 mi NNE 11.5 mph - N/A   Overcast
11:54 AM 71.6 °F 55.4 °F 57% 30.09 in 10.0 mi NNE 16.1 mph - N/A   Overcast
12:54 PM 73.9 °F 55.0 °F 52% 30.07 in 10.0 mi NE 15.0 mph 23.0 mph N/A   Mostly Cloudy
1:54 PM 73.0 °F 55.0 °F 53% 30.06 in 10.0 mi NE 11.5 mph 23.0 mph N/A   Mostly Cloudy
2:54 PM 75.0 °F 57.0 °F 53% 30.04 in 10.0 mi NE 11.5 mph 19.6 mph N/A   Overcast
3:54 PM 75.0 °F 57.0 °F 53% 30.02 in 10.0 mi NNE 16.1 mph 21.9 mph N/A   Mostly Cloudy
4:54 PM 73.9 °F 57.0 °F 55% 30.01 in 10.0 mi NE 11.5 mph - N/A   Clear
5:54 PM 73.0 °F 55.9 °F 55% 30.01 in 10.0 mi NE 9.2 mph - N/A   Clear
6:54 PM 70.0 °F 57.0 °F 63% 30.01 in 10.0 mi ENE 8.1 mph - N/A   Clear
7:54 PM 66.9 °F 57.0 °F 70% 30.03 in 10.0 mi ENE 5.8 mph - N/A   Clear
8:54 PM 64.0 °F 57.0 °F 78% 30.04 in 10.0 mi East 3.5 mph - N/A   Clear
9:54 PM 62.1 °F 57.0 °F 84% 30.04 in 10.0 mi Calm Calm - N/A   Clear
10:54 PM 61.0 °F 57.0 °F 87% 30.04 in 10.0 mi ENE 3.5 mph - N/A   Clear
11:54 PM 59.0 °F 55.9 °F 90% 30.04 in 10.0 mi NE 4.6 mph - N/A   Scattered Clouds